This demonstration page uses our WeatherBlox Daily Observations layout. Learn more.

Left ArrowRight Arrow

41.12389, -100.76542

Hourly Observations for December 9, 2017

Temp ( °F °C ) Dew Point ( °F °C ) Humidity (%) Winds ( mph kmh ) Pressure ( in mb ) Visibility ( mi km ) Precip ( " mm )
12:53 am 00:53 Clear 24 -4.4 18 -7.8 77 77 NW 8 13 30.19 1022 10 16 0.00 0.00
1:53 am 01:53 Clear 22 -5.6 16 -8.9 78 78 NW 7 11 30.20 1023 10 16 0.00 0.00
2:53 am 02:53 Clear 22 -5.6 16 -8.9 78 78 NW 6 9 30.21 1023 10 16 0.00 0.00
3:53 am 03:53 Clear 19 -7.2 15 -9.4 84 84 NW 7 11 30.22 1023 10 16 0.00 0.00
4:53 am 04:53 Clear 23 -5 17 -8.3 78 78 NW 6 9 30.22 1024 10 16 0.00 0.00
5:53 am 05:53 Clear 20 -6.7 16 -8.9 85 85 WNW 5 7 30.24 1024 10 16 0.00 0.00
6:53 am 06:53 Clear 19 -7.2 15 -9.4 84 84 NW 8 13 30.28 1025 10 16 0.00 0.00
8:53 am 08:53 Sunny 26 -3.3 20 -6.7 78 78 WNW 9 15 30.30 1026 10 16 0.00 0.00
9:53 am 09:53 Sunny 32 0 20 -6.7 61 61 W 12 19 30.31 1026 10 16 0.00 0.00
10:53 am 10:53 Sunny 40 4.4 22 -5.6 49 49 W 9 15 30.31 1026 10 16 0.00 0.00
11:53 am 11:53 Sunny 50 10 19 -7.2 29 29 NW 18 30 30.27 1025 10 16 0.00 0.00
12:53 pm 12:53 Sunny 54 12.2 17 -8.3 23 23 NNW 14 22 30.24 1024 10 16 0.00 0.00
1:53 pm 13:53 Sunny 56 13.3 15 -9.4 20 20 NW 16 26 30.22 1023 10 16 0.00 0.00
2:53 pm 14:53 Sunny 57 13.9 15 -9.4 19 19 WNW 16 26 30.21 1023 10 16 0.00 0.00
3:53 pm 15:53 Sunny 57 13.9 12 -11.1 17 17 NNW 16 26 30.22 1023 10 16 0.00 0.00
4:53 pm 16:53 Sunny 46 7.8 13 -10.6 26 26 WNW 8 13 30.23 1024 10 16 0.00 0.00
5:53 pm 17:53 Clear 38 3.3 13 -10.6 36 36 WNW 5 7 30.25 1024 10 16 0.00 0.00
6:53 pm 18:53 Clear 32 0 14 -10 47 47 W 8 13 30.26 1025 10 16 0.00 0.00
7:53 pm 19:53 Clear 29 -1.7 15 -9.4 56 56 NW 8 13 30.27 1025 10 16 0.00 0.00
8:53 pm 20:53 Clear 32 0 14 -10 47 47 NW 8 13 30.27 1025 10 16 0.00 0.00
9:53 pm 21:53 Clear 29 -1.7 16 -8.9 58 58 NW 9 15 30.27 1025 10 16 0.00 0.00
10:53 pm 22:53 Clear 29 -1.7 15 -9.4 56 56 WNW 8 13 30.26 1025 10 16 0.00 0.00
11:53 pm 23:53 Clear 37 2.8 15 -9.4 41 41 W 12 19 30.23 1024 10 16 0.00 0.00

Powered by AerisWeather